« Back
NWS Peachtree City, Ga » Text Product » GA Regional Weather Roundup


Printer-friendly Version
Current Version              Previous Versions:   1  2  3  4  5  6  7  8  9  

Regional Weather Roundup

726
ASUS42 KFFC 242203
RWRGA
WEATHER ROUNDUP FOR GEORGIA
NATIONAL WEATHER SERVICE PEACHTREE CITY GA
600 PM EDT FRI OCT 24 2014

NOTE: "FAIR" INDICATES FEW OR NO CLOUDS BELOW 12,000 FEET WITH NO
SIGNIFICANT WEATHER AND/OR OBSTRUCTIONS TO VISIBILITY.

* = USE WITH CAUTION. THE STATIONS MARKED WITH AN ASTERISK MAY NOT
REPORT WEATHER SUCH AS PRECIPITATION, FOG, OR THUNDER AND ARE NOT
QUALITY CONTROLLED BY NWS.

THE REMARK "TC" DENOTES TEMPERATURE READING IN DEGREES CELSIUS.

GAZ001>058-242300-
NORTH GEORGIA

CITY           SKY/WX    TMP DP  RH WIND       PRES   REMARKS
ATLANTA        CLEAR     72  40  31 NW5       30.01S
ATHENS         CLEAR     70  45  40 CALM      29.99S
CHAMBLEE       CLEAR     70  37  29 W7        30.00F
PEACHTREE CITY CLEAR     71  45  39 W3        30.01S
ROME           SUNNY     71  39  31 N8        30.01S
WEST ATLANTA   CLEAR     71  41  33 NW7       30.00F
GAINESVILLE    CLEAR     68  41  37 SW7       30.00F
CARTERSVILLE   CLEAR     68  39  34 CALM      30.01F


CITY           SKY/WX    TMP DP  RH WIND       PRES   REMARKS
DALTON*        CLEAR     66  43  42 N5        30.02S
LAWRENCEVILLE* CLEAR     72  37  28 W7        30.00S
MARIETTA       PTCLDY    70  38  30 W9        30.00F
KENNESAW*      CLEAR     70  37  30 NW3       30.02F
$$

GAZ059>098-102>109-242300-
CENTRAL GEORGIA

CITY           SKY/WX    TMP DP  RH WIND       PRES   REMARKS
AUGUSTA-BUSH   MOCLDY    74  43  32 N5        29.97F
AUGUSTA-DANIEL MOCLDY    74  39  28 N5        29.99S
COLUMBUS       SUNNY     73  43  33 N5        30.00R
MACON          CLEAR     72  42  34 S3        29.98F
ROBINS AFB     CLEAR     74  49  42 SE2       29.98F


CITY           SKY/WX    TMP DP  RH WIND       PRES   REMARKS
LAGRANGE*      SUNNY     75  47  37 CALM      30.01S
SYLVANIA*      CLEAR     78  49  36 CALM      29.99S
MILLEDGEVILLE* CLEAR     68  54  60 CALM      29.99R
$$

GAZ099>101-110>166-242300-
SOUTH GEORGIA

CITY           SKY/WX    TMP DP  RH WIND       PRES   REMARKS
SAVANNAH       PTCLDY    74  44  34 N5        29.98R
VALDOSTA       CLEAR     70  44  39 CALM      29.97R
ALMA           CLEAR     72  48  42 CALM      29.97S
ST SIMONS      CLEAR     68  50  52 NE6       29.97F
FT STEWART     CLEAR     72  47  42 NE1       29.97R
ALBANY         SUNNY     74  46  36 W5        30.00S
HUNTER AFB     CLEAR     69  50  50 S3        29.96S
MOODY AFB      CLEAR     73  42  32 N3        29.98R
BRUNSWICK      CLEAR     70  48  46 E7        29.98S


CITY           SKY/WX    TMP DP  RH WIND       PRES   REMARKS
BAINBRIDGE*    SUNNY     77  46  33 N3        29.98S
MOULTRIE*      SUNNY     73  46  38 NW5       29.98S
VIDALIA*       CLEAR     72  45  37 NE3       29.99S
WAYCROSS*      CLEAR     76  48  37 SE3       29.97R
DOUGLAS*       CLEAR     75  41  29 NW3       29.99R
$$



USA.gov is the U.S. government's official web portal to all federal, state and local government web resources and services.